Regional Weather Roundup
Issued by NWS

Home | Current Version | Previous Version | Graphics & Text | Print | Product List | Glossary On
Versions: 1 2 3 4 5 6 7 8 9 10 11 12 13 14 15 16 17 18 19 20 21 22 23 24 25 26 27 28 29 30 31 32 33 34 35 36 37 38 39 40 41 42 43 44 45 46 47 48 49 50
000
ASUS45 KPSR 231000
RWRAZ

ARIZONA HOURLY REGIONAL WEATHER ROUNDUP
NATIONAL WEATHER SERVICE PHOENIX AZ
300 AM MST SAT MAY 23 2015

NOTE: FAIR INDICATES FEW OR NO CLOUDS BELOW 12,000 FEET WITH NO
SIGNIFICANT WEATHER AND/OR OBSTRUCTIONS TO VISIBILITY.

AZZ001>003-036-231100-
NORTHWEST ARIZONA

CITY           SKY/WX    TMP DP  RH WIND       PRES   REMARKS
KINGMAN        CLEAR     49  39  68 SE12      29.97S
$$

AZZ004>008-015-016-018-231100-
NORTH CENTRAL ARIZONA

CITY           SKY/WX    TMP DP  RH WIND       PRES   REMARKS
GRAND CANYON   CLOUDY    33  32  96 CALM      30.04F
WILLIAMS       CLOUDY    39  34  81 SW6       30.11S WCI  35
PRESCOTT       CLOUDY    48  34  58 S3        30.03S
FLAGSTAFF      NOT AVBL
PAYSON         CLEAR     45  30  57 CALM      30.04S
PAGE           MOCLDY    50  38  63 N5        29.97S
$$

AZZ009>014-017-231100-
NORTHEAST ARIZONA

CITY           SKY/WX    TMP DP  RH WIND       PRES   REMARKS
WINSLOW        NOT AVBL
SAINT JOHNS    CLEAR     43  33  68 NW5       30.04R
WINDOW ROCK    CLEAR     36  25  64 CALM      30.06S
$$

AZZ023-231100-
GREATER PHOENIX AREA

CITY           SKY/WX    TMP DP  RH WIND       PRES   REMARKS
PHOENIX        CLEAR     66  39  37 SW5       29.92S
LUKE AFB       CLEAR     63  41  43 SW6       29.91S
DEER VALLEY    CLEAR     61  39  44 CALM      29.93S
SCOTTSDALE     CLEAR     62  41  46 S5        29.94F
$$

AZZ027-028-231100-
SOUTHWEST MARICOPA COUNTY AND PINAL COUNTY

CITY           SKY/WX    TMP DP  RH WIND       PRES   REMARKS
CASA GRANDE    CLEAR     57  37  47 SW6       29.94S
GILA BEND      FAIR      62  43  49 SW6       29.94S
$$

AZZ503-504-507>509-231100-
SOUTHEAST ARIZONA

CITY           SKY/WX    TMP DP  RH WIND       PRES   REMARKS
TUCSON         CLEAR     57  32  38 W6        30.00S
DAVIS-MONTHAN  CLEAR     57  33  39 W5        29.98S
NOGALES        CLEAR     49  31  49 S6        30.02S
SIERRA VISTA   CLEAR     51  36  55 SW8       30.04F
SAFFORD        CLEAR     58  37  45 W12       29.95S
$$

AZZ020-021-025-026-031-231100-
SOUTHWEST ARIZONA

CITY           SKY/WX    TMP DP  RH WIND       PRES   REMARKS
YUMA           CLEAR     61  45  55 VRB3      29.95S
$$

CAZ031-033-041-043-047-048-061-231100-
SOUTHERN CALIFORNIA

CITY           SKY/WX    TMP DP  RH WIND       PRES   REMARKS
DOWNTOWN L.A.  MOCLDY    59  52  77 CALM      30.05S
L.A. AIRPORT   PTCLDY    58  53  84 W7        30.06S
SAN DIEGO      MOCLDY    62  54  74 W3        30.09S
BURBANK        CLOUDY    59  50  72 SE3       30.04S
ONTARIO        CLOUDY    57  50  77 SW6       30.06S
RIVERSIDE      CLOUDY    58  52  80 CALM      30.06S
PALM SPRINGS   CLEAR     63  46  54 SE5       29.95S
EL CENTRO NAS  CLEAR     63  44  50 SW18      29.97R
IMPERIAL       CLEAR     62  45  53 W12       29.94S
BLYTHE         CLEAR     62  48  60 CALM      29.91S
$$

NVZ020-UTZ003-231100-
SOUTHERN NEVADA-UTAH

CITY           SKY/WX    TMP DP  RH WIND       PRES   REMARKS
LAS VEGAS      NOT AVBL
SALT LAKE CITY LGT RAIN  50  48  93 SE7       29.92S
$$

NMZ009-TXZ055-231100-
NEW MEXICO-WEST TEXAS

CITY           SKY/WX    TMP DP  RH WIND       PRES   REMARKS
ALBUQUERQUE    PTCLDY    52  30  43 E3        30.01R
EL PASO        CLOUDY    70  23  17 W7        29.96S
$$


........................KEY........................
SKY/WX - SKY CONDITION/WEATHER
TMP    - TEMPERATURE IN FAHRENHEIT
DP     - DEW POINT IN FAHRENHEIT
RH     - RELATIVE HUMIDITY IN PERCENT
WIND   - DIRECTION AND SPEED IN MILES PER HOUR (MPH)
VRB    - VARIABLE WIND DIRECTION
PRES   - MEAN SEA LEVEL PRESSURE IN INCHES OF MERCURY
         F - FALLING PRESSURE   R - RISING PRESSURE
         S - STEADY PRESSURE
VSB    - VISIBILITY IN MILES
HX     - HEAT INDEX IN FAHRENHEIT
WCI    - WIND CHILL INDEX IN FAHRENHEIT
TC     - TEMPERATURE IN CELSIUS WHICH IS ALSO KNOWN AS
         TEMPERATURE IN CENTIGRADE
AFB    - AIR FORCE BASE
         LUKE AFB IS LUKE AIR FORCE BASE
         DAVIS-MONTHAN IS DAVIS-MONTHAN AIR FORCE BASE
NAS    - NAVAL AIR STATION
         EL CENTRO NAS IS EL CENTRO NAVAL AIR STATION
N/A    - NOT AVAILABLE



USA.gov is the U.S. government's official web portal to all federal, state and local government web resources and services.